Hourly Weather Roundup
Issued by NWS Central Illinois

Home | Current Version | Previous Version | Text Only | Print | Product List | Glossary On
Versions: 1 2 3 4 5 6 7 8 9 10 11 12 13 14 15 16 17 18 19 20 21 22 23 24 25 26 27 28 29 30 31 32 33 34 35 36 37 38 39 40 41 42 43 44 45 46 47 48 49 50
000
NZUS43 KILX 052210
HWRILX

AREA WEATHER ROUNDUP
NATIONAL WEATHER SERVICE, LINCOLN IL
500 PM CDT SUN JUL 05 2015


CITY           SKY/WX    TMP DP  RH WIND       PRES   REMARKS
BLOOMINGTON    SUNNY     82  66  58 S13       30.06F HX  84
CHAMPAIGN      MOSUNNY   81  65  58 S5        30.06S HX  83
DANVILLE       CLOUDY    81  65  58 CALM      30.04S HAZE    HX  83
DECATUR        MOSUNNY   82  64  54 S8        30.05F HX  83
EFFINGHAM      MOSUNNY   83  60  46 S5        30.06S HX  83
FLORA          SUNNY     83  65  55 SW7       30.05S HX  85
GALESBURG      MOSUNNY   81  66  61 S8        30.02S HX  83
JACKSONVILLE   PTSUNNY   85  69  59 SE9       30.01F HX  88
LACON          SUNNY     82  63  52 S8        30.02S HX  83
LAWRENCEVILLE  SUNNY     83  68  60 S7        30.04F HX  86
LITCHFIELD     SUNNY     82  64  55 S9        30.03F HX  83
$$


CITY           SKY/WX    TMP DP  RH WIND       PRES   REMARKS
LINCOLN        MOSUNNY   83  64  51 S8        30.03F HX  85
MACOMB         MOSUNNY   82  69  66 SE8       30.03S HX  85
MATTOON        MOSUNNY   82  66  58 S5        30.04F HX  84
MT CARMEL AP   SUNNY     86  66  51 S7        30.04F HX  88
OLNEY-NOBLE AP SUNNY     82  68  61 CALM      30.04F HX  85
PARIS          SUNNY     82  65  55 S3        30.06S HX  84
PEORIA         SUNNY     84  64  50 S8        30.03S HX  85
PONTIAC        SUNNY     82  67  61 SE9       30.05F HX  84
RANTOUL        SUNNY     83  65  54 S6        30.06S HX  85
ROBINSON       CLOUDY    84  66  53 E3        30.05F HX  86
SPRINGFIELD    MOSUNNY   84  67  56 S8        30.02F HX  86
TAYLORVILLE    MOSUNNY   81  66  61 SE7       30.03F HX  83
$$

...REGIONAL REPORTS...


CITY           SKY/WX    TMP DP  RH WIND       PRES   REMARKS
CHICAGO O`HARE MOSUNNY   82  60  47 S10       30.03F HX  82
KANKAKEE       SUNNY     82  64  53 S6        30.05F HX  84
MOLINE         MOSUNNY   83  66  56 S8        30.00S HX  85
MOUNT STERLING NOT AVBL
MOUNT VERNON   MOSUNNY   86  64  48 SW7       30.05S HX  87
PITTSFIELD     SUNNY     84  70  61 SE7       30.02F HX  88
QUINCY         MOSUNNY   84  68  58 S8        29.99F HX  87
ROCKFORD       MOSUNNY   82  64  54 S10       30.04F HX  83
$$


CITY           SKY/WX    TMP DP  RH WIND       PRES   REMARKS
BURLINGTON     PTSUNNY   83  71  67 S7        29.99F HX  87
CEDAR RAPIDS   PTSUNNY   83  69  62 S14       29.97F HX  86
DES MOINES     PTSUNNY   86  69  56 SE15      29.91F HX  90
KIRKSVILLE     PTSUNNY   85  69  58 S13       29.98F HX  89
OTTUMWA        PTSUNNY   84  69  60 S13       29.94F HX  88
ST LOUIS       MOSUNNY   88  64  44 S9        30.01F HX  89
$$


CITY           SKY/WX    TMP DP  RH WIND       PRES   REMARKS
TERRE HAUTE    SUNNY     82  65  56 SE3       30.04F HX  84
EVANSVILLE     MOSUNNY   84  67  56 VRB3      30.04F HAZE    HX  86
INDIANAPOLIS   PTSUNNY   79  63  57 SE9       30.06F HX  80
LAFAYETTE      SUNNY     81  62  52 S6        30.05F HX  82
MADISON        MOSUNNY   83  62  49 S12       30.00F HX  84
MILWAUKEE      MOSUNNY   77  60  55 SE12      30.04S
$$





USA.gov is the U.S. government's official web portal to all federal, state and local government web resources and services.